C/2018 V1 ( Machholz-Fujikawa-Iwamoto )

Japanese version
Home page
Updated on November 22, 2018

---------------------------------------------------------------------

* Profile

Discovery Date November 7, 2018
Magnitude 10.5 mag, 12.0 mag, 10 mag
Discoverer Donald E. Machholz, Jr. (Colfax, CA, U.S.A.), Shigehisa Fujikawa (Kan'onji, Kagawa, Japan), Masayuki Iwamoto (Awa, Tokushima, Japan)

* Pictures

* Orbital Elements

T 2018 Dec. 3.51054 TT                                  MPCW
q   0.3869798            (2000.0)            P               Q
                   Peri.   88.77701     +0.61771192     +0.63876921
                   Node   128.71445     +0.24558701     -0.71080639
e   1.0            Incl.  143.99388     +0.74707362     -0.29449646
From 607 observations 2018 Nov. 8-20.

* Finding Charts

* Magnitudes Graph

        m1 = 10.0 + 5 log d + 10.0 log r

---------------------------------------------------------------------

The orbital elements are published on M.P.E.C. 2018-W46.
The charts are made with StellaNavigator Ver.10 (AstroArts).
The magnitudes graphs are made with Comet for Windows.

---------------------------------------------------------------------

Copyright(C) Seiichi Yoshida (comet@aerith.net). All rights reserved.